SKYSAT-C8

Last updated on Mon Sep 07 2026 00:02:46 GMT+0000 (Coordinated Universal Time)

1 42990U 17068D 26249.34610389 .00006878 00000+0 18392-3 0 9997 2 42990 97.4621 27.2318 0001627 93.8767 266.2664 15.38392612494788
UTC large
Height (km)
Speed (km/s)
/
Latitude / Longitude
Inclination (degrees)
Orbital Period (minutes)
Azimuth
Elevation
Range (km)
Doppler Factor

Next 0 passes for location: London (51.5072 / 0.1276)

No passes found over London.
SKYSAT-C8